NOAA 16 DEB, 42378

Orbit data source: Space-Track

NOAA 16 DEB, 42378 is space debris in SSO originally from a launch on Thu, 21 Sep 2000 UTC launched from the Air Force Western Test Range (AFWTR). Debris objects in space refer to the collection of defunct objects orbiting the Earth. Examples of debris include non-operational satellites, rocket bodies, and fragments generated from explosions, collisions, or faulty payload assembly.

Loading next visibility...
Identifier
42378, 2000-055RW
Orbit
SSO
Country
Flag of USUS
Related business
Manufacturer
Unknown
Mission
Spacecraft
Bus & Motor
Unknown
Mass
Unknown
Launch date (UTC)
2000-09-21 (26 years ago)
Launch vehicle
Unknown
Launch site
Air Force Western Test Range (AFWTR)
Object type
Payload
Rocket body
Debris
Shape & HBR
Unknown shape, 0.1 m
Radar Cross Section
Medium (>0.1 m² and <1 m²)

Expand to show TLE details & history
Last TLE update: 11 hours ago

TLE from 11 hours ago
0 NOAA 16 DEB
1 42378U 00055RW  26255.26143227  .00004023  00000-0  10936-2 0  9991
2 42378  98.8733  48.1178 0017848 225.6008 134.3723 14.48014682546909
Epoch: 2026-09-12T06:16Z
TLE epoch observation values (Epoch: 2026-09-12T06:16:27.748Z)
Latitude
0.00001°
Longitude
-37.27079°
Altitude
743.975 km
Speed
7.478 km/s
True Right ascension
03h 12m 28s
True Declination
0° 00' 00"
Sunlit
Object was in full shadow at epoch
Visualization orbit readout
Latitude
Unknown
Longitude
Unknown
Altitude
Unknown
Speed
Unknown
Apparent Right ascension
Unknown
Apparent Declination
Unknown
Sunlit
N/A
Visualization observer readout
Local Sidereal Time
10:01:34
Azimuth
Unknown
Elevation
Unknown
Doppler factor
Unknown
Orbital elements
Apogee altitude
741.955 km
Perigee altitude
716.584 km
Semi-major axis
7,107.406 km
Eccentricity
0.00178
Inclination
98.8733°
RAAN
48.1178°
Arg. of periapsis
225.6008°
True anomaly
134.51827°
Mean anomaly
134.3723°
Eccentric anomaly
134.44531°
Mean motion
3.62223 °/min
Orbital period
99.39 mins
BSTAR
0.0010936
Loading maneuver chart data...
Computing Atmospheric mass density...
Loading historical data...
Loading historical data...
Loading historical data...
Loading historical data...
Loading historical data...
Loading historical data...
Loading historical data...

Documentation

Showing up to 5 results
|